Home   Weather   Douglas   Past weeks

Flag for Isle of Man Past Weather in Douglas, Isle of Man — Yesterday and Last 2 Weeks

Now
50 °F

Sunny.


Feels Like: 43 °F
Forecast: 48 / 56 °F
Wind: 25 mph from Southeast

Location: Isle Of Man / Ronaldsway Airport

Current Time: Apr 30, 2017 at 8:06:17 am

Latest Report: Apr 30, 2017 at 7:20 am


Visibility: 10 mi

Pressure: 29.56 "Hg

Humidity: 71%

Dew Point: 41 °F

Location of DouglasLocation

Past Weather in Douglas — Graph

°F

Douglas Temperature Yesterday

Maximum temperature yesterday: 52 °F (at 12:50 pm)
Minimum temperature yesterday: 48 °F (at 12:50 am)
Average temperature yesterday: 50 °F

High & Low Weather Summary for the Past Weeks

 TemperatureHumidityPressure
High57 °F (Apr 21, 3:20 pm)100% (Apr 19, 10:20 am)30.57 "Hg (Apr 19, 10:20 am)
Low36 °F (Apr 26, 6:20 am)34% (Apr 24, 3:50 pm)29.56 "Hg (Apr 30, 5:50 am)
Average48 °F74%30.21 "Hg
* Reported Apr 15 6:20 am — Apr 30 6:50 am, Douglas, Weather by CustomWeather, © 2017

Note: Actual official high and low records may vary slightly from our data, if they occured in-between our weather recording intervals... More about our weather records

Advertising

Douglas Weather History for the Previous 24 Hours

Scroll right to see more
 ConditionsComfort  
Time TempWeatherWind HumidityBarometerVisibility
6:50 am
Sun, Apr 30
50 °FSunny.26 mph76%29.56 "Hg10 mi
6:20 am50 °FPassing clouds.26 mph76%29.56 "HgN/A
5:50 am50 °FSunny.29 mph76%29.56 "Hg10 mi
4:50 am50 °FClear.23 mph76%29.59 "Hg10 mi
3:50 am50 °FClear.24 mph76%29.62 "Hg10 mi
2:50 am50 °FClear.24 mph76%29.62 "Hg10 mi
1:50 am50 °FClear.21 mph76%29.65 "Hg10 mi
12:50 am50 °FClear.23 mph76%29.68 "Hg10 mi
11:50 pm
Sat, Apr 29
50 °FClear.21 mph76%29.71 "Hg10 mi
10:50 pm50 °FClear.21 mph76%29.71 "Hg10 mi
9:50 pm50 °FClear.18 mph76%29.74 "Hg10 mi
8:50 pm50 °FClear.16 mph76%29.74 "Hg10 mi
8:20 pm50 °FSunny.16 mph82%29.74 "Hg10 mi
7:50 pm50 °FSunny.16 mph82%29.74 "Hg10 mi
7:20 pm50 °FSunny.12 mph82%29.77 "Hg10 mi
6:50 pm50 °FSunny.12 mph82%29.77 "Hg10 mi
6:20 pm52 °FSunny.12 mph77%29.77 "Hg10 mi
5:50 pm52 °FSunny.13 mph77%29.77 "Hg10 mi
5:20 pm52 °FPassing clouds.12 mph77%29.80 "HgN/A
4:50 pm52 °FPassing clouds.12 mph77%29.80 "HgN/A
4:20 pm52 °FScattered clouds.13 mph77%29.80 "HgN/A
3:50 pm52 °FPartly sunny.13 mph77%29.80 "HgN/A
3:20 pm52 °FPartly sunny.13 mph77%29.83 "HgN/A
2:50 pm52 °FBroken clouds.10 mph77%29.83 "HgN/A
2:20 pm52 °FPartly sunny.12 mph77%29.83 "HgN/A
1:50 pm52 °FPartly sunny.14 mph77%29.83 "HgN/A
1:20 pm52 °FPartly sunny.12 mph77%29.83 "HgN/A
12:50 pm52 °FPartly sunny.12 mph77%29.86 "HgN/A
12:20 pm50 °FSprinkles. Broken clouds.15 mph88%29.86 "HgN/A
11:50 am50 °FBroken clouds.15 mph88%29.86 "HgN/A
11:20 am50 °FBroken clouds.15 mph88%29.86 "HgN/A
10:50 am50 °FSprinkles. Partly sunny.17 mph88%29.86 "HgN/A
10:20 am50 °FBroken clouds.14 mph88%29.86 "HgN/A
9:50 am48 °FRain. Scattered clouds.14 mph87%29.86 "HgN/A
9:20 am48 °FSprinkles. Scattered clouds.15 mph94%29.86 "HgN/A
8:50 am50 °FPassing clouds.15 mph76%29.86 "HgN/A
8:20 am50 °FScattered showers. Scattered clouds.16 mph82%29.86 "HgN/A
Weather by CustomWeather, © 2017

See weather overviewHow to use our weather pages